TimeEDT,TemperatureF,Dew PointF,Humidity,Sea Level PressureIn,VisibilityMPH,Wind Direction,Wind SpeedMPH,Gust SpeedMPH,PrecipitationIn,Events,Conditions,WindDirDegrees,DateUTC
12:51 AM,75.0,69.1,82,29.87,10.0,SW,13.8,-,N/A,,Mostly Cloudy,230,2013-08-31 04:51:00
1:51 AM,73.9,69.1,85,29.86,10.0,SW,12.7,-,N/A,,Mostly Cloudy,220,2013-08-31 05:51:00
2:51 AM,73.0,69.1,87,29.86,10.0,SW,11.5,-,N/A,,Mostly Cloudy,230,2013-08-31 06:51:00
3:51 AM,73.0,69.1,87,29.86,10.0,SW,11.5,-,N/A,,Mostly Cloudy,230,2013-08-31 07:51:00
4:51 AM,72.0,69.1,91,29.85,10.0,SW,12.7,-,N/A,,Mostly Cloudy,220,2013-08-31 08:51:00
5:00 AM,71.6,69.8,94,29.86,10.0,SW,15.0,-,N/A,,Overcast,220,2013-08-31 09:00:00
5:51 AM,73.0,69.1,87,29.86,10.0,SW,8.1,-,N/A,,Overcast,230,2013-08-31 09:51:00
6:51 AM,73.0,69.1,87,29.86,10.0,SSW,8.1,-,N/A,,Overcast,210,2013-08-31 10:51:00
7:51 AM,73.9,70.0,87,29.86,10.0,SW,8.1,-,N/A,,Overcast,220,2013-08-31 11:51:00
8:51 AM,75.0,70.0,84,29.86,10.0,SW,11.5,-,N/A,,Overcast,220,2013-08-31 12:51:00
9:51 AM,77.0,70.0,79,29.87,10.0,WSW,13.8,-,N/A,,Overcast,240,2013-08-31 13:51:00
10:25 AM,77.0,69.8,78,29.87,10.0,WSW,9.2,-,N/A,,Overcast,250,2013-08-31 14:25:00
10:51 AM,78.1,70.0,76,29.86,10.0,WSW,8.1,-,N/A,,Overcast,250,2013-08-31 14:51:00
11:51 AM,80.1,71.1,74,29.85,10.0,SW,10.4,-,N/A,,Mostly Cloudy,220,2013-08-31 15:51:00
12:51 PM,82.9,72.0,69,29.84,10.0,SSW,9.2,-,N/A,,Mostly Cloudy,210,2013-08-31 16:51:00
1:51 PM,84.9,72.0,65,29.83,10.0,SW,8.1,-,N/A,,Mostly Cloudy,230,2013-08-31 17:51:00
2:51 PM,86.0,72.0,63,29.81,10.0,SSW,5.8,-,N/A,,Mostly Cloudy,200,2013-08-31 18:51:00
3:51 PM,86.0,73.0,65,29.80,10.0,SSE,9.2,-,N/A,,Mostly Cloudy,160,2013-08-31 19:51:00
4:51 PM,84.9,72.0,65,29.79,10.0,South,6.9,-,N/A,,Mostly Cloudy,170,2013-08-31 20:51:00
5:51 PM,87.1,70.0,57,29.80,10.0,WSW,13.8,-,N/A,,Mostly Cloudy,240,2013-08-31 21:51:00
6:51 PM,84.9,71.1,63,29.79,10.0,SSW,13.8,-,N/A,,Mostly Cloudy,210,2013-08-31 22:51:00
7:51 PM,84.0,71.1,65,29.81,10.0,SW,11.5,-,N/A,,Mostly Cloudy,230,2013-08-31 23:51:00
8:51 PM,82.9,71.1,67,29.81,10.0,South,12.7,-,N/A,,Mostly Cloudy,190,2013-09-01 00:51:00
9:51 PM,81.0,72.0,74,29.83,10.0,South,9.2,-,N/A,,Mostly Cloudy,190,2013-09-01 01:51:00
10:51 PM,80.1,72.0,76,29.83,10.0,SSW,13.8,21.9,N/A,,Mostly Cloudy,200,2013-09-01 02:51:00
11:51 PM,79.0,71.1,77,29.83,10.0,SSW,9.2,17.3,N/A,,Mostly Cloudy,200,2013-09-01 03:51:00